FW6809 Weather Reports


Display with metric or nautical units.
time (UTC)temp
F
wind
direction
speed
MPH
gust
MPH
rain 1hr
in
rain 24hr
in
rain mn
in
humidity
%
barometer
mb
20260906000106 75 0 0.0 0.0 0.00 0.01 0.01 95 1014.3
20260905234607 76 0 0.0 0.0 0.00 0.01 0.01 94 1014.3
20260905233057 77 0 0.0 0.0 0.00 0.01 0.01 92 1014.3
20260905231602 76 0 0.0 0.0 0.00 0.01 0.01 90 1014.9
20260905230059 77 0 0.0 0.0 0.00 0.01 0.01 89 1014.7
20260905224555 77 0 0.0 1.0 0.00 0.01 0.01 85 1014.9
20260905223055 77 0 0.0 0.0 0.01 0.01 0.01 92 1014.5
20260905221550 76 0 0.0 0.0 0.01 0.01 0.01 93 1014.5
20260905220057 75 0 0.0 0.0 0.01 0.01 0.01 94 1014.7
20260905214554 75 0 0.0 0.0 0.01 0.01 0.01 91 1014.8
20260905213105 78 0 0.0 11.0 0.00 0.00 0.00 86 1014.9
20260905211608 86 146 1.0 14.0 0.00 0.00 0.00 70 1014.7
20260905204556 93 0 1.0 5.0 0.00 0.00 0.00 55 1014.3
20260905203113 94 0 0.0 6.0 0.00 0.00 0.00 56 1014.2
20260905201602 94 0 0.0 4.0 0.00 0.00 0.00 55 1014.3
20260905200117 94 0 0.0 3.0 0.00 0.00 0.00 52 1014.5
20260905194553 94 129 0.0 5.0 0.00 0.00 0.00 53 1014.5
20260905193101 94 0 0.0 1.0 0.00 0.00 0.00 56 1014.7
20260905191555 94 0 0.0 4.0 0.00 0.00 0.00 56 1015.1
20260905190054 94 0 0.0 0.0 0.00 0.00 0.00 58 1015.1
20260905184609 94 0 0.0 3.0 0.00 0.00 0.00 52 1015.2
20260905183058 94 178 1.0 5.0 0.00 0.00 0.00 50 1015.2
20260905181555 92 0 0.0 4.0 0.00 0.00 0.00 61 1015.6
20260905180105 93 0 0.0 3.0 0.00 0.00 0.00 63 1015.8
20260905174557 93 0 0.0 4.0 0.00 0.00 0.00 63 1016.0
20260905173102 92 0 0.0 1.0 0.00 0.00 0.00 65 1016.0
20260905171553 92 144 1.0 5.0 0.00 0.00 0.00 62 1016.3
20260905164605 92 0 0.0 2.0 0.00 0.00 0.00 67 1016.3
20260905163051 91 0 0.0 2.0 0.00 0.00 0.00 69 1016.5
20260905161557 91 0 0.0 2.0 0.00 0.00 0.00 68 1016.8
20260905160056 90 136 0.0 1.0 0.00 0.00 0.00 68 1017.0
20260905154557 90 0 0.0 4.0 0.00 0.00 0.00 72 1017.3
20260905153052 89 0 0.0 1.0 0.00 0.00 0.00 71 1017.2
20260905151612 88 0 0.0 1.0 0.00 0.00 0.00 73 1017.4
20260905150055 88 0 0.0 0.0 0.00 0.00 0.00 74 1017.4
20260905144559 88 0 0.0 0.0 0.00 0.00 0.00 73 1017.5
20260905143053 87 0 0.0 0.0 0.00 0.00 0.00 77 1017.4
20260905141554 85 0 0.0 0.0 0.00 0.00 0.00 78 1017.5
20260905140056 84 0 0.0 0.0 0.00 0.00 0.00 83 1017.6
20260905134559 83 0 0.0 0.0 0.00 0.00 0.00 85 1017.7
20260905133058 82 0 0.0 0.0 0.00 0.00 0.00 83 1017.8
20260905131554 81 0 0.0 0.0 0.00 0.00 0.00 86 1018.0
20260905130051 79 0 0.0 0.0 0.00 0.00 0.00 88 1018.0
20260905124558 76 0 0.0 0.0 0.00 0.00 0.00 93 1017.9
20260905123055 73 0 0.0 0.0 0.00 0.00 0.00 98 1017.9
20260905121553 71 0 0.0 0.0 0.00 0.00 0.00 100 1017.8
20260905120105 69 0 0.0 0.0 0.00 0.00 0.00 100 1017.6
20260905114603 68 0 0.0 0.0 0.00 0.00 0.00 100 1017.6
20260905113054 68 0 0.0 0.0 0.00 0.00 0.00 100 1017.3
20260905111551 68 0 0.0 0.0 0.00 0.00 0.00 100 1017.0
20260905110109 68 0 0.0 0.0 0.00 0.00 0.00 100 1016.8
20260905104601 69 0 0.0 0.0 0.00 0.00 0.00 100 1016.8
20260905103056 69 0 0.0 0.0 0.00 0.00 0.00 100 1016.7
20260905101609 69 0 0.0 0.0 0.00 0.00 0.00 100 1016.5
20260905100056 69 0 0.0 0.0 0.00 0.00 0.00 100 1016.4
20260905094602 69 0 0.0 0.0 0.00 0.00 0.00 100 1016.5
20260905093120 69 0 0.0 0.0 0.00 0.00 0.00 100 1016.6
20260905091605 69 0 0.0 0.0 0.00 0.00 0.00 100 1016.5
20260905090055 69 0 0.0 0.0 0.00 0.00 0.00 100 1016.4
20260905084554 70 0 0.0 0.0 0.00 0.00 0.00 100 1016.4
20260905083048 70 0 0.0 0.0 0.00 0.00 0.00 100 1016.5
20260905081558 70 0 0.0 0.0 0.00 0.00 0.00 100 1016.6
20260905080104 70 0 0.0 0.0 0.00 0.00 0.00 99 1016.7
20260905074554 70 0 0.0 0.0 0.00 0.00 0.00 99 1016.6
20260905073058 70 0 0.0 0.0 0.00 0.00 0.00 99 1016.6
20260905071556 71 0 0.0 0.0 0.00 0.00 0.00 99 1016.5
20260905070106 71 0 0.0 0.0 0.00 0.00 0.00 99 1016.6
20260905064553 71 0 0.0 0.0 0.00 0.00 0.00 99 1016.6
20260905063059 71 0 0.0 0.0 0.00 0.00 0.00 99 1016.7
20260905061605 71 0 0.0 0.0 0.00 0.00 0.00 99 1016.6
20260905060055 71 0 0.0 0.0 0.00 0.00 0.00 99 1016.7
20260905054556 71 0 0.0 0.0 0.00 0.00 0.00 99 1016.7
20260905053047 71 0 0.0 0.0 0.00 0.00 0.00 98 1016.8
20260905051556 72 0 0.0 0.0 0.00 0.00 0.00 98 1017.2
20260905050055 72 0 0.0 0.0 0.00 0.00 0.00 98 1017.4
20260905044609 72 0 0.0 0.0 0.00 0.00 0.00 98 1017.5
20260905043059 72 0 0.0 0.0 0.00 0.00 0.00 98 1017.5
20260905041555 72 0 0.0 0.0 0.00 0.00 0.00 97 1017.6
20260905040057 73 0 0.0 0.0 0.00 0.00 0.00 97 1017.6
20260905034551 73 0 0.0 0.0 0.00 0.00 0.00 96 1017.7
20260905033057 73 0 0.0 0.0 0.00 0.00 0.00 96 1017.8
20260905031604 74 0 0.0 0.0 0.00 0.00 0.00 95 1018.0
20260905030100 74 0 0.0 0.0 0.00 0.00 0.00 95 1018.0
20260905024602 75 0 0.0 0.0 0.00 0.00 0.00 95 1018.1
20260905023057 75 0 0.0 0.0 0.00 0.00 0.00 94 1018.2
20260905021556 75 0 0.0 0.0 0.00 0.00 0.00 94 1018.3
20260905014559 76 0 0.0 0.0 0.00 0.00 0.00 93 1018.1
20260905013059 77 0 0.0 0.0 0.00 0.00 0.00 92 1018.2
20260905011555 77 0 0.0 0.0 0.00 0.00 0.00 92 1017.9
20260905004629 79 0 0.0 0.0 0.00 0.00 0.00 91 1017.8
20260905003055 81 0 0.0 0.0 0.00 0.00 0.00 91 1017.7
20260905001553 81 0 0.0 0.0 0.00 0.00 0.00 89 1017.7